[[{"header":{"parameterUnit":"m.s-1","parameterCategory":1,"la1":30.2991,"la2":30.254,"lo1":-89.0895,"lo2":-89.0444,"dy":0.0017,"dx":0.0017,"nx":28,"ny":28,"refTime":"2024-08-10T03:00:00:Z","depth":0,"parameterNumber":2,"parameterNumberName":"U-component_of_WINDS"},"data":[0,0,0,0,0,0,0,0,0,0,0,0,0,0,0,0,0,0,0,0,0,0,0,0,0,0,0,0,0,0,0,0,0,0,0,0,0,0,0,0,0,0,0,0,0,0,0,0,0,0,0,0,0,0,0,0,0,0,-1.9578,-1.9578,0,-1.9577,-1.9577,-1.9577,-1.9545,-1.9544,-1.9544,-1.9543,-1.9541,-1.9542,-1.9542,0,0,0,0,0,0,0,0,0,0,0,0,0,-1.9554,-1.9555,-1.9578,-1.9578,-1.9578,-1.9577,-1.9577,-1.9577,-1.9545,-1.9544,-1.9543,-1.9543,-1.9541,-1.9542,-1.9542,0,0,0,0,0,0,0,0,0,0,0,0,0,-1.956,-1.9555,-1.9578,-1.9563,-1.9561,-1.9577,-1.9577,-1.9577,-1.9546,-1.9544,-1.9543,-1.9542,-1.954,-1.9541,-1.9542,-1.9573,0,0,-1.9546,-1.9546,0,0,0,0,0,0,0,0,-1.956,-1.9561,-1.9565,-1.9564,-1.9562,-1.956,-1.9567,-1.9575,-1.9546,-1.9552,-1.9543,-1.9542,-1.9548,-1.9549,-1.9551,-1.9573,-1.9573,-1.9546,-1.9546,-1.9547,-1.9547,0,0,0,0,0,0,0,-1.9559,-1.9561,-1.9578,-1.9565,-1.9563,-1.9555,-1.9555,-1.9569,-1.9557,-1.9551,-1.9549,-1.9549,-1.9547,-1.955,-1.9551,-1.9573,-1.9546,-1.9547,-1.9547,-1.9548,-1.962,-1.9622,0,0,0,0,0,0,-1.9561,-1.9561,-1.9578,-1.9578,-1.9558,-1.9557,-1.9556,-1.9562,-1.9556,-1.9554,-1.955,-1.9547,-1.9549,-1.9549,-1.955,-1.9586,-1.9547,-1.9548,-1.9548,-1.9619,-1.9621,-1.9622,0,0,0,0,0,0,-1.9561,-1.9563,-1.9578,-1.9568,-1.957,-1.9559,-1.9565,-1.9562,-1.9565,-1.9556,-1.9553,-1.9555,-1.9548,-1.9549,-1.9568,-1.9586,-1.9548,-1.9549,-1.9618,-1.962,-1.9621,-1.9658,0,0,0,0,0,0,-1.956,-1.9563,-1.9575,-1.9569,-1.957,-1.9595,-1.9566,-1.9563,-1.9567,-1.9564,-1.956,-1.9558,-1.9547,-1.9566,-1.9569,-1.9587,-1.955,-1.9616,-1.9618,-1.9621,-1.9656,-1.9661,-1.9666,0,0,0,0,0,-1.9559,-1.9585,-1.9575,-1.9578,-1.9585,-1.9597,-1.9597,-1.9584,-1.9569,-1.958,-1.9574,-1.9558,-1.9583,-1.9569,-1.9571,-1.959,-1.9615,-1.9618,-1.9621,-1.9653,-1.966,-1.9666,0,0,0,0,0,0,-1.9593,-1.9584,-1.9573,-1.9598,-1.9598,-1.9591,-1.9605,-1.9592,-1.9597,-1.9594,-1.9577,-1.9577,-1.9598,-1.9595,-1.9579,-1.9619,-1.9596,-1.96,-1.962,-1.9627,-1.9632,-1.9633,-1.9551,0,0,0,0,0,-1.9603,-1.9613,-1.9605,-1.9627,-1.9628,-1.9617,-1.9621,-1.9611,-1.9611,-1.9611,-1.9606,-1.9607,-1.9615,-1.962,-1.9627,-1.9655,-1.9654,-1.9669,-1.9674,-1.9679,-1.9682,-1.9697,-1.9704,-1.9632,-1.9632,-1.9632,0,0,-1.9624,-1.962,-1.9628,-1.9634,-1.9633,-1.9644,-1.9617,-1.963,-1.9638,-1.9613,-1.9631,-1.9627,-1.9627,-1.965,-1.966,-1.9649,-1.9702,-1.9682,-1.9686,-1.9687,-1.9701,-1.9708,-1.9714,-1.9634,-1.9633,-1.9633,0,0,-1.9669,-1.9667,-1.9685,-1.9685,-1.9685,-1.9677,-1.9681,-1.9677,-1.9673,-1.9691,-1.9672,-1.9682,-1.9696,-1.9696,-1.9698,-1.9743,-1.9729,-1.9746,-1.9775,-1.9789,-1.9795,-1.98,-1.9817,-1.9823,-1.9749,-1.9749,-1.9749,0,-1.9695,-1.9711,-1.9697,-1.9711,-1.9715,-1.9692,-1.9711,-1.9712,-1.9713,-1.9716,-1.9703,-1.972,-1.9718,-1.9742,-1.9753,-1.9755,-1.976,-1.9747,-1.9795,-1.98,-1.9805,-1.9821,-1.9827,-1.9751,-1.9751,-1.9751,-1.9751,0,-1.9744,-1.9756,-1.9771,-1.9774,-1.9779,-1.9795,-1.9783,-1.979,-1.9779,-1.9773,-1.9791,-1.9788,-1.9794,-1.9799,-1.9788,-1.9821,-1.9814,-1.9798,-1.9775,-1.9814,-1.9829,-1.9835,-1.9755,-1.9754,-1.9753,-1.9753,0,0,-1.9811,-1.9805,-1.9811,-1.9812,-1.9809,-1.9818,-1.9833,-1.9839,-1.9846,-1.9847,-1.9861,-1.9873,-1.9859,-1.9861,-1.985,-1.9863,-1.99,-1.9846,-1.9846,-1.9857,-1.9937,-1.9949,-1.9957,-1.989,-1.9891,-1.9892,-1.9937,0,-1.9854,-1.9881,-1.9868,-1.9897,-1.9908,-1.9886,-1.99,-1.99,-1.9895,-1.9903,-1.9896,-1.9906,-1.9886,-1.9887,-1.9899,-1.9893,-1.9916,-1.989,-1.9903,-1.9903,-1.9905,-1.9964,-1.9977,-2.002,-1.9943,-1.9944,-1.9944,0,-1.9909,-1.9914,-1.9943,-1.9939,-1.9943,-1.9956,-1.9961,-1.9969,-1.9968,-1.9963,-1.9966,-1.9953,-1.9968,-1.9944,-1.9965,-1.9948,-1.9952,-1.995,-1.9951,-1.9953,-1.9927,-1.9968,-2.0033,-2.004,-1.9953,-1.9952,-1.9952,0,-1.9956,-1.9969,-1.9988,-1.999,-1.9985,-1.9995,-1.9993,-1.9992,-1.9996,-2.0,-2.0003,-2.0009,-2.0012,-2.0017,-2.0005,-1.9989,-2.0028,-2.0003,-2.0025,-2.0025,-2.0035,-2.0034,-2.0102,-2.0036,-2.0036,-2.0036,-2.0036,0,-2.0007,-2.0026,-2.0009,-2.0022,-2.0042,-2.0027,-2.0048,-2.0044,-2.0043,-2.0054,-2.0036,-2.0047,-2.003,-2.0039,-2.003,-2.0049,-2.0051,-2.0047,-2.0045,-2.005,-2.005,-2.0053,-2.005,-2.0037,-2.0037,-2.0037,-2.0036,0,-2.0063,-2.0052,-2.0072,-2.0066,-2.0065,-2.0081,-2.0076,-2.0087,-2.008,-2.0094,-2.0097,-2.0086,-2.0096,-2.0085,-2.0093,-2.0087,-2.0113,-2.0106,-2.0114,-2.0112,-2.0135,-2.0133,-2.0208,-2.0217,-2.0144,-2.0144,-2.0145,0,-2.0096,-2.0111,-2.0106,-2.0113,-2.0112,-2.0122,-2.0127,-2.0113,-2.0118,-2.0119,-2.013,-2.0138,-2.0144,-2.0161,-2.0154,-2.0161,-2.0154,-2.018,-2.0155,-2.0159,-2.0156,-2.0155,-2.0157,-2.0185,-2.0186,-2.0187,-2.0187,0,-2.0158,-2.0152,-2.0159,-2.0166,-2.0172,-2.0176,-2.0178,-2.0184,-2.0169,-2.0176,-2.0186,-2.0191,-2.02,-2.0209,-2.0214,-2.0212,-2.0198,-2.0195,-2.02,-2.0206,-2.021,-2.0209,-2.0129,-2.0194,-2.0193,-2.0192,-2.0192,-2.0192,-2.0204,-2.0216,-2.0215,-2.0224,-2.0225,-2.0228,-2.0238,-2.0232,-2.024,-2.0247,-2.0238,-2.025,-2.025,-2.0254,-2.0254,-2.0264,-2.0253,-2.0261,-2.0263,-2.0266,-2.027,-2.0208,-2.0265,-2.0265,-2.0264,-2.0264,-2.0264,0,-2.0265,-2.0264,-2.0272,-2.0277,-2.0284,-2.0269,-2.0271,-2.0278,-2.029,-2.029,-2.0297,-2.0308,-2.0317,-2.031,-2.0317,-2.0326,-2.032,-2.0329,-2.0329,-2.0329,-2.0278,-2.0273,-2.0334,-2.0334,-2.0334,-2.0334,-2.0334,-2.0334,-2.0298,-2.0318,-2.0312,-2.0332,-2.033,-2.0343,-2.0345,-2.0348,-2.0348,-2.0362,-2.0369,-2.0365,-2.0363,-2.0369,-2.0376,-2.0374,-2.0378,-2.039,-2.0385,-2.0339,-2.0332,-2.0326,-2.0321,-2.039,-2.039,-2.0435,-2.0435,-2.0436]},{"header":{"parameterUnit":"m.s-1","parameterCategory":1,"la1":30.2991,"la2":30.254,"lo1":-89.0895,"lo2":-89.0444,"dy":0.0017,"dx":0.0017,"nx":28,"ny":28,"refTime":"2024-08-10T03:00:00:Z","depth":0,"parameterNumber":3,"parameterNumberName":"V-component_of_WINDS"},"data":[0,0,0,0,0,0,0,0,0,0,0,0,0,0,0,0,0,0,0,0,0,0,0,0,0,0,0,0,0,0,0,0,0,0,0,0,0,0,0,0,0,0,0,0,0,0,0,0,0,0,0,0,0,0,0,0,0,0,-3.8513,-3.8513,0,-3.8495,-3.8495,-3.8495,-3.8442,-3.8441,-3.844,-3.8438,-3.8421,-3.8421,-3.8422,0,0,0,0,0,0,0,0,0,0,0,0,0,-3.8504,-3.8504,-3.8513,-3.8513,-3.8513,-3.8495,-3.8495,-3.8495,-3.8442,-3.8441,-3.8439,-3.8438,-3.8421,-3.8421,-3.8422,0,0,0,0,0,0,0,0,0,0,0,0,0,-3.8499,-3.8505,-3.8513,-3.8484,-3.8482,-3.8495,-3.8495,-3.8495,-3.8442,-3.8441,-3.8439,-3.8437,-3.842,-3.8421,-3.8422,-3.8463,0,0,-3.8425,-3.8425,0,0,0,0,0,0,0,0,-3.85,-3.85,-3.8489,-3.8486,-3.8483,-3.8469,-3.8485,-3.8484,-3.8443,-3.8457,-3.8438,-3.8436,-3.8438,-3.8438,-3.8438,-3.8462,-3.8461,-3.8425,-3.8426,-3.8426,-3.8426,0,0,0,0,0,0,0,-3.85,-3.85,-3.8506,-3.8489,-3.8485,-3.8473,-3.847,-3.8485,-3.8458,-3.8456,-3.8452,-3.8451,-3.8436,-3.8437,-3.8437,-3.8461,-3.8425,-3.8426,-3.8426,-3.8427,-3.8518,-3.8519,0,0,0,0,0,0,-3.8504,-3.8501,-3.8507,-3.8506,-3.8487,-3.8474,-3.8472,-3.8475,-3.8457,-3.8453,-3.8452,-3.8448,-3.8437,-3.8436,-3.8436,-3.8483,-3.8426,-3.8427,-3.8427,-3.8516,-3.8518,-3.852,0,0,0,0,0,0,-3.8504,-3.8505,-3.8507,-3.8502,-3.8501,-3.8476,-3.8481,-3.8476,-3.8477,-3.8455,-3.845,-3.8458,-3.8435,-3.8435,-3.8457,-3.8482,-3.8427,-3.8428,-3.8514,-3.8516,-3.8519,-3.8577,0,0,0,0,0,0,-3.8504,-3.8506,-3.852,-3.8503,-3.8502,-3.8528,-3.8483,-3.8477,-3.8478,-3.8473,-3.8459,-3.8455,-3.8434,-3.8456,-3.8458,-3.8482,-3.8429,-3.8511,-3.8515,-3.8518,-3.8572,-3.8581,-3.8588,0,0,0,0,0,-3.8504,-3.8537,-3.8521,-3.8522,-3.852,-3.8529,-3.8529,-3.8504,-3.848,-3.8495,-3.8481,-3.8455,-3.8479,-3.8458,-3.846,-3.8485,-3.8509,-3.8514,-3.8518,-3.8569,-3.8579,-3.8588,0,0,0,0,0,0,-3.8558,-3.8534,-3.8516,-3.8545,-3.8539,-3.852,-3.8538,-3.8516,-3.8517,-3.8512,-3.8482,-3.8479,-3.8505,-3.8497,-3.8475,-3.8524,-3.849,-3.8495,-3.8528,-3.8538,-3.8546,-3.8547,-3.843,0,0,0,0,0,-3.8573,-3.8583,-3.8561,-3.8589,-3.8587,-3.8563,-3.8566,-3.8548,-3.8541,-3.8539,-3.8526,-3.8521,-3.8527,-3.8532,-3.8536,-3.8571,-3.8567,-3.8589,-3.8597,-3.8604,-3.8609,-3.8627,-3.8637,-3.8534,-3.8534,-3.8534,0,0,-3.8605,-3.8593,-3.8601,-3.8599,-3.8593,-3.8604,-3.8562,-3.8575,-3.8583,-3.8541,-3.856,-3.8551,-3.8543,-3.8572,-3.8584,-3.8566,-3.8636,-3.8609,-3.8615,-3.8616,-3.8632,-3.8642,-3.8651,-3.8537,-3.8536,-3.8536,0,0,-3.8668,-3.866,-3.8682,-3.8677,-3.8668,-3.8652,-3.8657,-3.8642,-3.8634,-3.8653,-3.8622,-3.8631,-3.8643,-3.8639,-3.8638,-3.8701,-3.8677,-3.8703,-3.8746,-3.8764,-3.8772,-3.8779,-3.8802,-3.8811,-3.8708,-3.8708,-3.8708,0,-3.8709,-3.8724,-3.8696,-3.8712,-3.8712,-3.8675,-3.8697,-3.8694,-3.8687,-3.8688,-3.8669,-3.8683,-3.8675,-3.8702,-3.8718,-3.8718,-3.8724,-3.8705,-3.8773,-3.878,-3.8786,-3.8808,-3.8817,-3.8711,-3.8711,-3.8711,-3.871,0,-3.8774,-3.8785,-3.8804,-3.8799,-3.8801,-3.882,-3.8796,-3.8803,-3.8784,-3.8771,-3.8791,-3.878,-3.8783,-3.8788,-3.877,-3.8813,-3.8802,-3.8779,-3.8744,-3.88,-3.882,-3.8828,-3.8716,-3.8715,-3.8714,-3.8713,0,0,-3.8871,-3.885,-3.8858,-3.8855,-3.8843,-3.8851,-3.8869,-3.8871,-3.8877,-3.8874,-3.8888,-3.8899,-3.8877,-3.8877,-3.8858,-3.8874,-3.8926,-3.8848,-3.8848,-3.8864,-3.8974,-3.8992,-3.9002,-3.891,-3.8911,-3.8912,-3.8975,0,-3.8931,-3.896,-3.8936,-3.8969,-3.898,-3.8945,-3.896,-3.8955,-3.8943,-3.895,-3.8937,-3.8946,-3.8916,-3.8915,-3.893,-3.8916,-3.8948,-3.8912,-3.8924,-3.8924,-3.8927,-3.9012,-3.9032,-3.9091,-3.8982,-3.8983,-3.8984,0,-3.9005,-3.9005,-3.904,-3.9026,-3.9029,-3.9044,-3.9044,-3.9051,-3.9045,-3.9035,-3.9035,-3.9012,-3.903,-3.8996,-3.9019,-3.8995,-3.8999,-3.8993,-3.8995,-3.8995,-3.8958,-3.9016,-3.9109,-3.9118,-3.8996,-3.8995,-3.8994,0,-3.9073,-3.9082,-3.9104,-3.9102,-3.9087,-3.9098,-3.9092,-3.9084,-3.9087,-3.9087,-3.9089,-3.9092,-3.9093,-3.9096,-3.9075,-3.9052,-3.9102,-3.9066,-3.9095,-3.9095,-3.9107,-3.9106,-3.9202,-3.9109,-3.9109,-3.9108,-3.9108,0,-3.9143,-3.9165,-3.9134,-3.9147,-3.9172,-3.9145,-3.917,-3.9161,-3.9154,-3.9166,-3.9136,-3.9147,-3.9118,-3.9127,-3.9111,-3.9133,-3.9134,-3.9127,-3.9123,-3.913,-3.9131,-3.9132,-3.9128,-3.9111,-3.911,-3.911,-3.9109,0,-3.9222,-3.9202,-3.9224,-3.9208,-3.9204,-3.9223,-3.9209,-3.9222,-3.9208,-3.9223,-3.9225,-3.9204,-3.9213,-3.9192,-3.9198,-3.9187,-3.9219,-3.9208,-3.9222,-3.9218,-3.9249,-3.9246,-3.9349,-3.9361,-3.926,-3.9261,-3.9261,0,-3.9268,-3.9285,-3.9271,-3.9276,-3.9272,-3.9281,-3.9284,-3.9259,-3.9263,-3.9258,-3.9271,-3.9278,-3.9281,-3.9297,-3.9283,-3.9287,-3.9276,-3.9312,-3.9277,-3.9284,-3.9278,-3.9277,-3.9279,-3.9319,-3.9321,-3.9322,-3.9322,0,-3.9353,-3.9342,-3.9347,-3.935,-3.9354,-3.9355,-3.9354,-3.936,-3.9333,-3.934,-3.9348,-3.9351,-3.9358,-3.9365,-3.9366,-3.936,-3.9338,-3.9334,-3.9341,-3.9349,-3.9356,-3.9353,-3.9242,-3.9331,-3.9331,-3.933,-3.9329,-3.9329,-3.9417,-3.9431,-3.9423,-3.943,-3.9427,-3.9426,-3.9437,-3.9425,-3.9432,-3.9435,-3.942,-3.9432,-3.9426,-3.9426,-3.9423,-3.9432,-3.9416,-3.9426,-3.9429,-3.9432,-3.9437,-3.9354,-3.9432,-3.9432,-3.9432,-3.9432,-3.9431,0,-3.95,-3.9494,-3.9501,-3.95,-3.9506,-3.9484,-3.9481,-3.9488,-3.9499,-3.9495,-3.95,-3.9511,-3.9517,-3.9504,-3.9509,-3.9519,-3.9509,-3.9521,-3.9521,-3.952,-3.9451,-3.9445,-3.953,-3.953,-3.953,-3.953,-3.953,-3.953,-3.9544,-3.9566,-3.9555,-3.9575,-3.9569,-3.9581,-3.9581,-3.9581,-3.9578,-3.9591,-3.9597,-3.9588,-3.958,-3.9584,-3.959,-3.9586,-3.9589,-3.9606,-3.9598,-3.9534,-3.9525,-3.9515,-3.9509,-3.9607,-3.9607,-3.9666,-3.9667,-3.9667]}]]